www.pogodaiklimat.ru

Погода и климат >> Архив погоды >> Россия >> Эвенкия >> Тура


АРХИВ ПОГОДЫ в Туре

Время (UTC), дата Ветер
(напр.,м/с)
 
Видим.   Явления Облачность Т
(С)
Тd
(С)
f
(%)
Тe
(С)
Тes
(С)
Комфортность P
(гПа)
Po
(гПа)
Тmin
(С)
Tmax
(С)
R
(мм)
R24
(мм)
S
(см)
06 13.09 В 1 500 м ливневой снег 10/8 600 м
[Cb cap Ac trans]
-0.7 -2.6 87 -3 -2 1000.4 976.9
09 13.09 ЮВ 4 10 км слаб. ливневой снег 8/8 600 м
[Cb cap]
+2.3 -1.7 75 -2 -2 1001.8 978.4
12 13.09 штиль 0 20 км {ливн. осадки} 1/1 1000 м
[Sc]
+0.1 -2.9 80 -1 -1 1002.9 979.4 +2.3 2
15 13.09 СЗ 1 н/о ясно -4.0 -5.5 89 -6 -6 1004.7 980.7
18 13.09 З 2 н/о 4/0
[Ci fib]
-4.5 -5.8 91 -9 -9 1005.6 981.6
21 13.09 З 3 н/о 6/0
[Ac trans Ci fib]
-5.1 -6.1 93 -11 -11 1004.9 980.8
00 14.09 З 3 2000 м снег 10/0
[Ac As]
-4.0 -5.2 91 -9 -9 1004.2 980.2 -5.1 0.4 <0.5
03 14.09 СЗ 1 4000 м слаб. ливневой снег 10/10 300 м
[Cb cap]
-1.0 -2.0 93 -3 -3 1004.5 980.8
06 14.09 штиль 0 20 км {ливн. осадки, снег} 10/10 300 м
[Cb cap]
+4.2 +1.1 80 +3 +3 1004.5 981.3
09 14.09 С 4 20 км 10/10 600 м
[Cb cap]
+5.6 -2.1 58 +2 +2 1006.0 982.8
12 14.09 З 1 20 км 10/10 600 м
[Cb cap]
+4.9 -2.0 61 +4 +4 1007.1 983.8 +6.4 1
15 14.09 СЗ 1 н/о 10/10 600 м
[Cb cap]
+3.4 -3.7 60 +2 +2 1007.4 984.0
18 14.09 С 1 н/о 10/10 600 м
[Cb cap]
+2.6 -3.6 64 +1 +1 1007.2 983.7
21 14.09 СЗ 1 н/о 4/4 600 м
[Cb cap]
+0.2 -4.3 72 -2 -2 1007.0 983.3
00 15.09 С 1 20 км 9/3 1000 м
[Sc Ac trans]
+0.4 -4.6 69 -1 -1 1007.1 983.3 -0.2
03 15.09 СЗ 2 20 км 9/4 1000 м
[Cu Sc Ac trans]
+2.2 -4.2 63 -1 0 1006.5 983.0
06 15.09 С 4 10 км слаб. ливневой снег 10/10 600 м
[Cb cap]
+2.7 -3.5 64 -2 -2 1006.0 982.5
09 15.09 З 3 10 км слаб. снег 10/3 600 м
[Cu hum Ac As]
+3.0 -0.8 76 -1 -1 1006.2 982.8
12 15.09 З 2 10 км слаб. дождь 10/0 600 м
[Ac As]
+1.7 -0.8 83 -2 -2 1007.0 983.4 +3.5 0.0
15 15.09 З 1 н/о слаб. снег {дождь} 10/8 1000 м
[Sc Ac As]
+1.6 -0.9 83 -0 -0 1006.8 983.2
18 15.09 З 2 н/о слаб. ливневой снег 10/10 600 м
[Cb cap]
+1.6 -0.9 83 -2 -2 1007.2 983.6
21 15.09 СЗ 1 н/о {ливн. осадки} 10/10 600 м
[Cb cap]
+1.7 -0.5 85 0 0 1008.8 985.2
00 16.09 З 1 20 км {ливн. осадки} 9/8 600 м
[Cb cap Ac lent]
+1.6 -1.2 82 -0 -0 1010.6 987.0 +1.4 0.0
03 16.09 СЗ 1 20 км 8/8 600 м
[Cb cap]
+4.1 -2.7 61 +3 +4 1011.8 988.4
06 16.09 З 3 20 км 9/9 600 м
[Cb cap]
+6.5 -3.3 50 +4 +4 1012.3 989.0
09 16.09 З 3 20 км 10/10 600 м
[Cb cap]
+5.8 -5.1 45 +3 +3 1013.9 990.5
12 16.09 З 3 20 км 10/10 600 м
[Cb cap]
+4.8 -4.7 50 +2 +2 1015.2 991.8 +6.7
15 16.09 З 1 н/о 10/10 600 м
[Cb cap]
+3.5 -5.0 54 +3 +3 1016.1 992.5
18 16.09 СЗ 1 н/о 8/8 600 м
[Cb cap]
+1.8 -4.7 62 +1 +1 1016.3 992.5
21 16.09 СЗ 1 н/о 10/10 600 м
[Cb cap]
-0.5 -3.9 78 -2 -2 1016.8 992.8
00 17.09 СЗ 1 500 м ливневой снег 10/10 600 м
[Cb cap]
-0.5 -2.0 90 -3 -3 1017.4 993.4 -0.7 0.2 <0.5
03 17.09 В 2 2000 м слаб. ливневой снег 10/10 300 м
[Cb cap]
+0.9 -1.1 86 -3 -3 1016.5 992.7
06 17.09 В 2 10 км слаб. ливневой дождь 10/10 600 м
[Cb cap]
+2.8 +1.2 89 -0 -0 1016.1 992.5
09 17.09 В 1 20 км {ливн. осадки} 10/10 600 м
[Cb cap]
+3.8 +1.8 87 +2 +2 1016.1 992.6
12 17.09 Ю 1 20 км {ливн. осадки} 10/10 600 м
[Cb cap]
+3.6 +2.1 90 +2 +2 1015.9 992.4 +3.8 2
15 17.09 ЮВ 1 н/о слаб. ливневой дождь 10/10 600 м
[Cb cap]
+3.0 +2.0 93 +1 +1 1015.3 991.8
18 17.09 В 2 н/о {ливн. осадки} 10/10 600 м
[Cb cap]
+2.8 +2.0 94 -1 -1 1014.4 990.9
21 17.09 В 2 н/о {ливн. осадки} 10/10 600 м
[Cb cap]
+2.7 +1.9 94 -1 -1 1013.9 990.3
00 18.09 В 2 20 км {ливн. осадки} 10/10 600 м
[Cb cap]
+2.7 +1.9 94 -1 -1 1013.5 989.9 +2.7 2
03 18.09 В 2 20 км 10/10 600 м
[Cb cap]
+3.8 +1.5 85 +1 +1 1012.7 989.3
06 18.09 ЮВ 5-10
{10}
20 км 10/10 600 м
[Cb cap]
+5.2 +0.3 71 +1 +1 1011.5 988.1
09 18.09 ЮВ 6-11
{11}
20 км 10/10 600 м
[Cb cap]
+4.7 0.0 72 -0 -0 1010.5 987.2
12 18.09 В 4
{11}
4000 м слаб. ливневой дождь 10/10 600 м
[Cb cap]
+3.5 +0.3 80 -1 -1 1010.1 986.7 +5.3 0.6
15 18.09 ЮВ 1 н/о слаб. ливневой снег 10/10 600 м
[Cb cap]
+1.2 -0.5 88 -1 -1 1011.5 987.8
18 18.09 В 2 н/о слаб. ливневой снег 10/10 600 м
[Cb cap]
+0.6 -0.5 92 -3 -3 1012.2 988.4
21 18.09 В 2 н/о слаб. ливневой снег 10/10 600 м
[Cb cap]
+0.5 -0.3 94 -3 -3 1012.5 988.7
00 19.09 ЮВ 1 2000 м дымка {ливн. осадки} 10/10 600 м
[Cb cap]
+0.6 -0.2 94 -1 -1 1013.9 990.1 +0.5 12 <0.5
03 19.09 Ю 1 {ливн. осадки} н/о +0.7 +1 +1 1015.3 991.7
06 19.09 В 1 20 км {ливн. осадки} 10/10 200 м
[St]
+4.1 +2.1 87 +3 +3 1015.8 992.4
09 19.09 В 1 20 км 8/8 300 м
[St]
+6.0 +2.9 80 +5 +5 1015.4 992.1
12 19.09 В 2 20 км 8/0
[Ci fib]
+5.0 +2.3 83 +2 +2 1014.5 991.1 +6.6 0.0
15 19.09 В 5 н/о 10/5 600 м
[Cb cap Ac und]
+3.9 +1.1 82 -1 -1 1012.5 989.1
18 19.09 В 4 н/о слаб. ливневой дождь 10/10 600 м
[Cb cap]
+3.0 +1.2 88 -2 -2 1008.4 985.0
21 19.09 ЮВ 2 н/о слаб. ливневой дождь 10/10 600 м
[Cb cap]
+3.7 +2.5 92 +1 +1 1004.4 981.1
00 20.09 ЮВ 3 4000 м слаб. ливневой дождь 10/10 600 м
[Cb cap]
+3.7 +3.0 95 -0 -0 1003.5 980.3 +3.0 5
03 20.09 ЮВ 2 20 км {ливн. осадки} 10/10 600 м
[Cb cap]
+5.5 +4.6 94 +3 +3 1004.1 981.0

 

Местоположение метеостанции Тура (Эвенкия, Россия): широта 64.33 долгота 100.40 высота над уровнем моря 624 м.

В архиве по умолчанию представлена погода в Туре за последнюю неделю. Архивные данные за месяц целиком и за предыдущие месяцы, начиная с января 2011 года, Вы можете получить, выбрав интересующий диапазон дат из раскрывающегося списка и нажав кнопку "Ввод!".


*Определитесь, кто Вы:
робот инопланетянин человек

Внимание! Время в таблицах - всемирное. Для получения местного времени необходимо прибавить поправку, которая равна 7 ч.

Смотрите также архив погоды в соседних городах и на ближайших метеорологических станциях:

Погода в Тембенчи (Эвенкия, Россия) (99 км)
Погода в Кербо (Эвенкия, Россия) (182 км)
Погода в Кислокане (Эвенкия, Россия) (190 км)
Погода в Стрелке-Чуне (Эвенкия, Россия) (311 км)
Погода в Тутончанах (Эвенкия, Россия) (320 км)
Погода в Муторае (Эвенкия, Россия) (334 км)
Погода в Байките (Эвенкия, Россия) (359 км)
Погода в Агате (Эвенкия, Россия) (426 км)
Погода в Усть-Камо (Эвенкия, Россия) (428 км)
Погода в Ванаваре (Эвенкия, Россия) (456 км)

Пояснения к столбцам:

Ветер - указаны скорость ветра в м/с - средняя за 10 мин, порывы в срок и между сроками (в фигурных скобках) и направление, откуда дует ветер: С - северный, СВ - северо-восточный, В - восточный, ЮВ - юго-восточный, Ю - южный, ЮЗ - юго-западный, З - западный, СЗ - северо-западный.
Видимость - горизонтальная дальность видимости в метрах или километрах. При видимости от 1 до 10 км при отсутствии осадков обычно наблюдается дымка, при ухудшении видимости до 1 км и менее - туман. В сухую погоду видимость может ухудшаться дымом, пылью или мглою.
Явления - указаны атмосферные явления, наблюдавшиеся в срок или в последний час перед сроком; фигурными скобками обозначены явления, наблюдавшиеся между сроками (за 1-3 часа до срока); квадратными скобками обозначены град или гололедные отложения с указанием их диаметра в мм.
Облачность - указаны через наклонную черту общая и нижняя облачность в баллах и высота нижней границы облаков в метрах; квадратными скобками обозначены формы облаков: Ci - перистые, Cs - перисто-слоистые, Cc - перисто-кучевые, Ac - высококучевые, As - высокослоистые, Sc - слоисто-кучевые, Ns - слоисто-дождевые, Cu - кучевые, Cb - кучево-дождевые. Подробнее классификацию облаков см. в Атласе облаков (PDF).
T - Температура воздуха - температура, измеренная на высоте 2 м над землей.
Td - Температура точки росы - температура, при понижении до которой содержащийся в воздухе водяной пар достигнет насыщения.
f - Относительная влажность воздуха - влажноcть воздуха, измеренная на высоте 2 м над землей.
Te - Эффективная температура - температура, которую ощущает одетый по сезону человек в тени. Характеристика душности погоды. При расчете учитывается влияние влажности воздуха и скорости ветра на теплоощущения человека.
Tes - Эффективная температура на солнце - температура, которую ощущает человек, с поправкой на солнечный нагрев. Характеристика знойности погоды. Зависит от высоты солнца над горизонтом, облачности и скорости ветра. Ночью, в пасмурную погоду, а также при ветре 12 м/с и более поправка равна нулю.
P - Атмосферное давление - приведенное к уровню моря атмосферное давление.
Po - Атмосферное давление - измеренное на уровне метеостанции атмосферное давление.
Tmin - Минимальная температура - минимум температуры воздуха на высоте 2 м над землей.
Tmax - Максимальная температура - максимум температуры воздуха на высоте 2 м над землей.
R - Количество осадков - Количество выпавших осадков за период времени, мм. При наведении курсора мыши на число - период времени, за который выпало указанное количество осадков.
R24 - Количество осадков - Количество выпавших осадков за 24 часа, мм.
S - Снежный покров - Высота снежного покрова, см. При наведении курсора мыши на число - состояние снежного покрова и степень покрытия местности в баллах.